When you browse on this site, cookies collect data to enhance your experience and personalize the content and advertising you see.
Visit our Privacy Policy to learn more. By continuing to use the site, you agree to this use of cookies and data.
  • In Spain
  • List of Countries
  • For 7 days
  • Water Temperature
  • Satellite Maps
  • Weather Map
  • Weather Widgets
  • user-avatar
    Login

    Hourly Weather San Juan

    Today, 23 July, Tuesday

    Time Temperature Precipitation Wind Pressure Humidity
    00:00 +8°C° 0 mm 3 mps 710 mmHg 33%
    01:00 +7°C° 0 mm 3 mps 710 mmHg 32%
    02:00 +7°C° 0 mm 3 mps 710 mmHg 34%
    03:00 +5°C° 0 mm 3 mps 710 mmHg 35%
    04:00 +5°C° 0 mm 3 mps 710 mmHg 36%
    05:00 +5°C° 0 mm 3 mps 710 mmHg 36%
    06:00 +5°C° 0 mm 3 mps 710 mmHg 37%
    07:00 +5°C° 0 mm 3 mps 711 mmHg 37%
    08:00 +7°C° 0 mm 3 mps 711 mmHg 35%
    09:00 +7°C° 0 mm 4 mps 712 mmHg 33%
    10:00 +8°C° 0 mm 4 mps 712 mmHg 31%
    11:00 +10°C° 0 mm 4 mps 711 mmHg 33%
    12:00 +10°C° 0 mm 3 mps 711 mmHg 34%
    13:00 +11°C° 0 mm 3 mps 711 mmHg 35%
    14:00 +11°C° 0 mm 3 mps 711 mmHg 35%
    15:00 +11°C° 0 mm 3 mps 711 mmHg 35%
    16:00 +11°C° 0 mm 3 mps 711 mmHg 34%
    17:00 +10°C° 0 mm 2 mps 711 mmHg 38%
    18:00 +8°C° 0 mm 2 mps 712 mmHg 42%
    19:00 +8°C° 0 mm 1 mps 712 mmHg 46%
    20:00 +8°C° 0 mm 1 mps 713 mmHg 47%
    21:00 +7°C° 0 mm 1 mps 713 mmHg 48%
    22:00 +6°C° 0 mm 0 mps 713 mmHg 49%
    23:00 +5°C° 0 mm 0 mps 713 mmHg 50%

    Tomorrow, 24 July, Wednesday

    Time Temperature Precipitation Wind Pressure Humidity
    00:00 +5°C° 0 mm 0 mps 713 mmHg 50%
    01:00 +4°C° 0 mm 0 mps 714 mmHg 50%
    02:00 +5°C° 0 mm 1 mps 714 mmHg 51%
    03:00 +5°C° 0 mm 1 mps 714 mmHg 52%
    04:00 +5°C° 0 mm 1 mps 714 mmHg 53%
    05:00 +5°C° 0 mm 1 mps 714 mmHg 53%
    06:00 +5°C° 0 mm 1 mps 714 mmHg 53%
    07:00 +4°C° 0 mm 0 mps 714 mmHg 53%
    08:00 +7°C° 0 mm 1 mps 714 mmHg 46%
    09:00 +8°C° 0 mm 2 mps 714 mmHg 40%
    10:00 +11°C° 0 mm 3 mps 714 mmHg 33%
    11:00 +12°C° 0 mm 3 mps 713 mmHg 31%
    12:00 +13°C° 0 mm 3 mps 712 mmHg 29%
    13:00 +14°C° 0 mm 3 mps 712 mmHg 27%
    14:00 +14°C° 0 mm 3 mps 711 mmHg 26%
    15:00 +15°C° 0 mm 2 mps 711 mmHg 26%
    16:00 +15°C° 0 mm 2 mps 711 mmHg 26%
    17:00 +13°C° 0 mm 1 mps 711 mmHg 31%
    18:00 +11°C° 0 mm 1 mps 711 mmHg 35%
    19:00 +8°C° 0 mm 0 mps 711 mmHg 39%
    20:00 +8°C° 0 mm 0 mps 710 mmHg 41%
    21:00 +7°C° 0 mm 0 mps 710 mmHg 42%
    22:00 +8°C° 0 mm 1 mps 710 mmHg 43%
    23:00 +8°C° 0 mm 1 mps 710 mmHg 45%

    Day after tomorrow, 25 July, Thursday

    Time Temperature Precipitation Wind Pressure Humidity
    00:00 +7°C° 0 mm 1 mps 710 mmHg 48%
    01:00 +7°C° 0 mm 1 mps 710 mmHg 50%
    02:00 +6°C° 0 mm 1 mps 709 mmHg 51%
    03:00 +6°C° 0 mm 1 mps 709 mmHg 53%
    04:00 +6°C° 0 mm 1 mps 709 mmHg 54%
    05:00 +6°C° 0 mm 1 mps 709 mmHg 53%
    06:00 +6°C° 0 mm 1 mps 709 mmHg 51%
    07:00 +6°C° 0 mm 1 mps 709 mmHg 49%
    08:00 +9°C° 0 mm 1 mps 709 mmHg 43%
    09:00 +11°C° 0 mm 1 mps 709 mmHg 36%
    10:00 +14°C° 0 mm 2 mps 709 mmHg 29%
    11:00 +15°C° 0 mm 2 mps 708 mmHg 27%
    12:00 +16°C° 0 mm 2 mps 708 mmHg 25%
    13:00 +17°C° 0 mm 2 mps 707 mmHg 23%
    14:00 +17°C° 0 mm 2 mps 707 mmHg 23%
    15:00 +17°C° 0 mm 2 mps 707 mmHg 23%
    16:00 +17°C° 0 mm 2 mps 707 mmHg 22%
    17:00 +15°C° 0 mm 2 mps 707 mmHg 27%
    18:00 +13°C° 0 mm 2 mps 708 mmHg 31%
    19:00 +10°C° 0 mm 2 mps 708 mmHg 35%
    20:00 +11°C° 0 mm 1 mps 708 mmHg 36%
    21:00 +10°C° 0 mm 1 mps 708 mmHg 37%
    22:00 +10°C° 0 mm 1 mps 708 mmHg 38%
    23:00 +8°C° 0 mm 0 mps 708 mmHg 41%

    26 July, Friday

    Time Temperature Precipitation Wind Pressure Humidity
    00:00 +7°C° 0 mm 0 mps 708 mmHg 43%
    01:00 +7°C° 0 mm 0 mps 707 mmHg 45%
    02:00 +6°C° 0 mm 0 mps 707 mmHg 46%
    03:00 +6°C° 0 mm 0 mps 707 mmHg 47%
    04:00 +7°C° 0 mm 1 mps 707 mmHg 49%
    05:00 +7°C° 0 mm 1 mps 708 mmHg 48%
    06:00 +7°C° 0 mm 1 mps 708 mmHg 47%
    07:00 +7°C° 0 mm 1 mps 709 mmHg 46%
    08:00 +10°C° 0 mm 1 mps 710 mmHg 40%
    09:00 +13°C° 0 mm 2 mps 710 mmHg 34%
    10:00 +15°C° 0 mm 2 mps 711 mmHg 28%
    11:00 +16°C° 0 mm 3 mps 710 mmHg 26%
    12:00 +17°C° 0 mm 3 mps 710 mmHg 25%
    13:00 +17°C° 0 mm 4 mps 709 mmHg 23%
    14:00 +17°C° 0 mm 4 mps 709 mmHg 23%
    15:00 +17°C° 0 mm 4 mps 709 mmHg 24%
    16:00 +15°C° 0 mm 4 mps 709 mmHg 24%
    17:00 +14°C° 0 mm 3 mps 709 mmHg 26%
    18:00 +12°C° 0 mm 3 mps 710 mmHg 29%
    19:00 +10°C° 0 mm 2 mps 710 mmHg 32%
    20:00 +10°C° 0 mm 2 mps 710 mmHg 33%
    21:00 +10°C° 0 mm 2 mps 710 mmHg 33%
    22:00 +9°C° 0 mm 2 mps 710 mmHg 33%
    23:00 +9°C° 0 mm 2 mps 710 mmHg 34%

    27 July, Saturday

    Time Temperature Precipitation Wind Pressure Humidity
    00:00 +8°C° 0 mm 2 mps 709 mmHg 35%
    01:00 +8°C° 0 mm 2 mps 709 mmHg 36%
    02:00 +8°C° 0 mm 1 mps 709 mmHg 37%
    03:00 +8°C° 0 mm 1 mps 709 mmHg 38%
    04:00 +7°C° 0 mm 1 mps 708 mmHg 40%
    05:00 +7°C° 0 mm 1 mps 708 mmHg 41%
    06:00 +6°C° 0 mm 0 mps 708 mmHg 42%
    07:00 +6°C° 0 mm 0 mps 709 mmHg 43%
    08:00 +9°C° 0 mm 1 mps 709 mmHg 38%
    09:00 +12°C° 0 mm 1 mps 709 mmHg 33%
    10:00 +14°C° 0 mm 1 mps 709 mmHg 28%
    11:00 +15°C° 0 mm 1 mps 708 mmHg 26%
    12:00 +16°C° 0 mm 1 mps 708 mmHg 25%
    13:00 +18°C° 0 mm 1 mps 707 mmHg 24%
    14:00 +18°C° 0 mm 1 mps 707 mmHg 24%
    15:00 +18°C° 0 mm 1 mps 706 mmHg 23%
    16:00 +18°C° 0 mm 1 mps 706 mmHg 23%
    17:00 +15°C° 0 mm 1 mps 706 mmHg 28%
    18:00 +13°C° 0 mm 1 mps 706 mmHg 32%
    19:00 +12°C° 0 mm 1 mps 706 mmHg 36%
    20:00 +11°C° 0 mm 1 mps 706 mmHg 38%
    21:00 +10°C° 0 mm 1 mps 705 mmHg 40%
    22:00 +9°C° 0 mm 0 mps 705 mmHg 43%
    23:00 +8°C° 0 mm 0 mps 705 mmHg 47%

    28 July, Sunday

    Time Temperature Precipitation Wind Pressure Humidity
    00:00 +8°C° 0 mm 0 mps 705 mmHg 51%
    01:00 +7°C° 0 mm 0 mps 705 mmHg 55%
    02:00 +8°C° 0 mm 1 mps 705 mmHg 58%
    03:00 +8°C° 0 mm 1 mps 704 mmHg 61%
    04:00 +8°C° 0 mm 1 mps 704 mmHg 64%
    05:00 +8°C° 0 mm 1 mps 705 mmHg 64%
    06:00 +8°C° 0 mm 1 mps 705 mmHg 65%
    07:00 +8°C° 0 mm 1 mps 705 mmHg 65%
    08:00 +10°C° 0 mm 1 mps 706 mmHg 57%
    09:00 +13°C° 0 mm 1 mps 706 mmHg 48%
    10:00 +15°C° 0 mm 1 mps 706 mmHg 40%
    11:00 +16°C° 0 mm 1 mps 706 mmHg 37%
    12:00 +17°C° 0 mm 2 mps 705 mmHg 34%
    13:00 +18°C° 0 mm 2 mps 705 mmHg 31%
    14:00 +18°C° 0 mm 2 mps 704 mmHg 31%
    15:00 +18°C° 0 mm 3 mps 704 mmHg 31%
    16:00 +18°C° 0 mm 3 mps 704 mmHg 31%
    17:00 +16°C° 0 mm 2 mps 704 mmHg 35%
    18:00 +14°C° 0 mm 2 mps 705 mmHg 39%
    19:00 +13°C° 0 mm 1 mps 705 mmHg 44%
    20:00 +12°C° 0 mm 1 mps 705 mmHg 45%
    21:00 +12°C° 0 mm 1 mps 705 mmHg 45%
    22:00 +11°C° 0 mm 1 mps 705 mmHg 46%
    23:00 +11°C° 0 mm 1 mps 705 mmHg 48%
    Show more